GEFSMW_500_meanwind_000.txt.gz
Wind_Speed
23 26 29 31 33 35 37 36 37 43 40 30 33 29 28 31 35 37 40 44 48 51 54 56 59 62 63 64 65 64 65 66 69 70 70 69 68 71 71 67 67 67 70
28 30 32 33 35 36 38 37 37 39 46 48 33 34 34 39 43 42 45 48 49 54 59 62 64 67 68 70 72 73 75 76 79 81 82 82 80 80 81 83 83 79 79
32 34 34 35 34 34 36 38 40 41 40 42 43 48 48 52 49 49 50 50 54 59 64 67 70 73 76 78 81 82 84 85 86 87 87 88 88 87 85 84 82 81 81
33 34 34 33 33 34 36 39 42 45 44 50 54 54 53 54 54 54 55 59 63 67 70 73 75 78 79 80 80 81 82 83 82 79 78 78 78 78 79 77 75 70 66
30 31 34 35 36 37 39 42 44 47 49 51 53 55 56 57 58 60 64 67 70 74 76 78 79 80 80 78 76 75 74 73 72 69 67 67 64 63 64 64 59 59 57
32 34 36 38 39 41 43 44 45 47 50 52 54 55 57 59 62 66 69 72 75 77 79 80 81 80 78 75 73 69 67 66 64 64 64 64 64 62 61 61 56 58 60
34 36 38 40 41 42 42 43 44 44 46 49 52 55 59 64 67 70 73 76 79 80 81 82 82 80 76 70 66 63 63 64 64 64 63 64 64 64 64 66 64 60 56
33 34 35 36 37 37 37 39 41 43 46 51 56 61 65 69 72 75 78 81 82 83 83 81 80 76 68 65 64 62 60 58 58 57 56 56 58 60 61 59 55 50 50
31 31 31 31 32 33 36 39 43 47 52 57 62 66 70 74 77 81 83 84 84 83 80 76 68 61 59 58 55 51 48 47 46 44 42 41 41 42 42 41 39 39 40
31 31 32 35 37 39 42 46 49 54 58 63 67 72 76 80 83 86 85 83 80 76 67 58 54 51 51 50 48 44 41 40 38 35 33 32 32 31 30 30 30 31 29
35 36 38 40 43 45 48 51 55 60 64 69 73 77 81 85 86 85 82 75 65 54 49 47 46 45 44 43 42 40 39 37 35 32 30 28 26 25 25 24 24 24 22
40 41 42 44 47 49 53 57 61 66 70 75 79 82 84 85 82 73 60 49 43 42 42 41 39 37 36 35 35 34 35 36 35 33 30 27 25 26 27 26 24 24 20
42 43 44 46 49 53 58 62 67 71 75 78 80 79 76 68 56 46 43 41 37 35 33 32 33 35 35 34 33 33 34 34 33 31 29 27 25 25 21 18 17 18 19
45 45 46 49 53 58 62 66 70 73 74 73 70 64 53 44 40 38 35 30 27 27 29 31 31 30 27 25 25 26 25 23 24 22 20 19 18 16 16 18 16 14 14
45 45 48 52 56 61 65 68 71 69 65 61 55 48 40 34 28 23 20 20 21 23 23 22 22 22 20 21 23 21 18 17 16 15 13 13 14 14 15 17 16 15 14
45 46 50 55 59 63 66 67 61 50 40 34 28 24 21 18 16 17 17 19 21 21 21 23 24 25 24 23 22 21 20 17 14 13 12 12 13 12 14 16 14 14 12
44 48 53 58 61 62 61 53 36 24 24 24 21 19 18 17 18 22 24 26 26 26 26 27 27 27 27 26 23 21 20 18 15 14 13 11 10 12 14 11 7 8 12
47 52 57 60 60 55 46 30 18 19 21 17 17 20 21 23 26 28 27 26 26 27 28 28 28 27 27 26 24 22 20 18 15 15 13 11 11 9 9 2 4 6 11
49 54 58 57 50 41 28 15 15 16 15 15 19 23 25 26 27 28 29 29 29 29 28 28 28 28 27 26 26 25 22 19 16 13 11 11 8 6 2 3 5 9 10
51 55 53 44 35 22 10 9 10 11 12 17 21 24 26 28 30 32 33 34 34 33 31 30 28 26 25 23 23 23 21 18 16 13 10 9 5 7 4 3 3 5 2
49 46 37 27 13 3 4 5 7 9 14 19 22 25 28 30 33 35 37 39 38 36 34 32 29 26 23 21 20 19 18 17 16 13 10 7 4 7 7 6 2 6 8
39 30 20 8 2 4 5 6 8 12 16 20 23 26 29 32 35 38 40 38 34 31 31 29 26 24 22 20 18 15 13 14 15 14 12 7 5 6 7 6 6 10 13
25 16 5 4 6 8 8 8 11 15 18 21 25 29 32 35 37 40 40 36 30 29 29 27 25 23 22 21 20 15 10 8 11 14 16 13 8 6 8 7 12 14 18
12 3 5 8 10 9 9 11 14 17 19 23 26 30 33 37 40 41 39 33 29 29 29 29 29 26 24 23 23 21 15 9 7 10 17 18 13 8 10 13 15 18 20
4 7 11 11 10 9 10 14 15 18 20 22 26 30 35 39 41 41 39 32 29 30 31 31 27 25 22 18 17 18 18 12 8 8 14 19 18 15 14 18 20 20 19
9 13 14 11 9 10 12 13 15 17 19 23 27 31 35 39 42 41 39 34 30 32 34 31 26 25 24 22 19 17 14 13 10 9 11 17 20 19 18 22 26 23 19

GEFSMW_500_meanwind_006.txt.gz
Wind_Speed
30 32 34 37 40 43 46 49 51 49 48 46 44 42 42 43 44 45 49 49 46 45 47 48 51 55 56 57 59 61 63 65 67 68 70 70 72 73 74 76 77 78 77
34 33 35 37 41 44 48 51 52 52 52 50 48 47 48 48 50 51 51 49 47 48 53 55 57 58 59 61 64 66 68 69 70 73 76 77 76 76 77 77 76 74 72
35 34 34 37 40 43 47 50 52 53 52 52 51 51 52 53 54 53 53 50 49 58 61 59 60 62 63 66 69 72 74 74 75 78 81 83 82 79 76 73 69 66 63
32 34 36 38 41 43 45 47 48 50 51 51 52 53 54 55 56 56 57 58 64 67 67 69 71 73 74 75 77 79 80 81 82 82 84 84 81 76 71 63 60 59 59
32 35 37 40 41 42 43 44 46 47 48 48 49 50 52 53 55 56 58 62 66 70 73 76 79 81 83 85 86 86 86 86 85 84 80 75 68 62 59 54 51 52 53
38 38 37 38 39 40 41 42 43 43 43 44 46 48 50 52 55 58 61 65 68 72 76 80 83 86 88 90 90 89 86 83 79 72 65 58 53 50 49 48 46 45 45
42 40 37 36 37 37 37 38 39 40 42 45 46 48 51 54 57 61 64 68 72 76 79 82 83 84 85 85 82 77 72 66 59 53 49 48 47 45 44 43 43 42 40
40 38 36 36 36 36 36 37 40 42 45 47 49 51 53 56 60 65 70 74 77 78 78 77 74 72 68 65 59 53 48 45 43 43 43 43 42 41 41 41 41 40 38
37 37 38 38 38 39 39 41 43 46 48 51 52 54 57 61 66 70 74 75 74 70 66 60 56 52 49 46 42 39 38 38 38 39 39 38 38 37 38 39 39 37 34
40 42 42 41 41 41 42 44 46 48 51 52 54 57 62 66 67 66 64 61 55 50 46 44 43 42 41 39 37 36 36 37 37 38 38 37 37 37 37 38 36 33 30
43 45 45 44 43 43 44 46 49 51 52 54 57 61 64 62 58 53 49 44 40 37 36 36 36 35 34 35 35 34 34 33 33 33 32 32 33 34 35 34 31 29 28
47 48 47 46 45 45 47 49 51 52 54 56 59 62 59 52 45 43 41 38 37 35 35 34 34 34 33 32 31 30 29 28 28 29 28 28 28 28 27 26 24 23 23
48 49 48 47 47 48 49 51 53 54 56 58 60 57 48 40 38 38 38 39 39 39 38 38 37 37 36 34 34 33 32 31 30 28 28 27 26 24 22 20 19 19 19
48 49 47 47 48 50 51 53 54 55 57 58 55 46 37 34 34 37 38 39 40 41 41 41 41 40 39 39 38 37 36 35 33 30 28 27 24 21 19 18 18 19 18
50 48 47 48 49 51 53 54 55 57 58 55 44 34 31 31 34 36 36 38 41 43 44 44 44 42 41 40 39 38 37 36 33 32 30 27 24 21 19 18 18 19 19
48 47 48 49 50 52 54 54 56 58 54 42 31 27 28 30 32 33 36 39 42 44 46 45 43 41 38 38 37 36 35 34 31 30 29 27 23 20 19 18 18 18 17
46 47 48 49 51 52 52 55 57 52 39 26 22 23 26 28 30 33 36 40 43 45 46 43 38 35 34 34 34 34 32 31 30 28 28 26 22 19 18 17 16 14 13
46 47 48 49 50 50 52 54 47 33 22 19 20 23 25 27 31 34 38 42 44 45 44 41 37 35 34 34 33 32 31 30 29 27 26 25 22 19 17 15 13 12 12
46 46 47 48 46 48 49 41 28 19 17 18 21 22 25 29 33 37 42 44 44 43 42 39 37 37 36 34 32 30 28 27 27 26 25 23 21 19 16 13 11 11 13
44 45 44 42 44 44 36 24 18 16 17 18 20 24 28 32 36 41 44 45 44 41 39 37 37 37 37 34 32 28 25 24 24 24 24 22 19 17 14 12 10 11 12
42 40 38 39 41 33 23 17 15 16 17 19 23 26 31 35 40 44 46 44 42 41 39 38 37 37 35 33 31 27 22 21 21 22 22 20 17 15 12 10 9 8 6
36 34 35 37 31 22 16 14 15 16 18 22 26 30 34 39 43 45 45 43 42 41 40 38 37 37 35 31 29 27 22 18 18 19 18 17 14 14 12 10 7 3 2
30 31 34 31 21 14 12 13 14 17 21 25 29 33 38 42 44 44 43 42 42 42 41 38 37 36 33 29 28 26 22 18 15 15 14 13 12 12 11 10 8 6 9
28 31 29 20 14 11 11 12 15 18 23 27 32 36 40 43 44 44 42 41 42 42 41 39 35 33 30 26 25 24 23 19 13 10 9 8 10 11 12 12 11 11 12
27 27 20 13 10 9 10 12 15 20 25 29 33 38 41 43 43 43 42 41 41 41 39 37 33 30 27 24 22 22 22 17 8 5 5 5 9 11 14 16 16 14 14
24 18 12 10 8 7 9 12 16 21 26 30 35 39 40 41 42 42 41 41 41 39 37 34 31 28 27 25 23 21 20 13 2 3 3 4 9 12 15 19 18 16 13

GEFSMW_500_meanwind_012.txt.gz
Wind_Speed
34 33 32 32 34 35 37 38 39 39 40 40 39 39 38 38 37 38 38 39 40 42 45 47 49 51 53 54 55 58 61 64 67 69 70 69 69 70 72 74 75 77 79
31 31 31 31 33 35 37 38 39 40 40 41 41 41 41 41 41 41 42 43 45 47 49 51 54 55 58 60 62 64 67 71 74 76 77 76 73 72 74 76 77 78 80
27 29 30 31 32 34 37 38 38 39 40 41 42 43 43 44 44 46 47 49 51 52 54 56 57 59 62 65 67 69 72 74 75 77 78 77 74 71 69 70 71 73 74
29 31 32 32 32 34 36 36 37 39 41 43 44 45 46 47 48 50 52 54 55 57 59 60 61 64 65 66 67 67 68 68 68 69 69 68 65 61 57 58 60 61 61
33 34 34 33 33 35 35 36 38 41 44 46 47 48 50 51 52 54 56 57 59 61 62 63 65 64 64 62 61 61 60 59 58 56 55 55 54 53 52 52 51 50 48
36 37 37 36 36 37 37 38 41 44 47 49 50 52 53 54 55 57 59 60 61 62 63 64 63 62 58 56 55 55 54 53 53 52 51 51 51 51 50 49 47 45 41
40 41 41 40 41 40 40 41 44 47 50 52 53 55 55 57 58 60 61 62 62 62 62 61 59 55 51 49 49 49 49 50 50 50 50 49 49 48 47 46 45 42 39
42 43 42 42 43 42 42 44 46 48 52 55 56 57 57 58 60 61 62 63 62 61 60 56 51 47 45 44 45 46 48 49 49 50 49 48 47 46 45 44 42 39 35
38 39 39 40 41 42 44 45 46 49 53 56 57 57 59 61 63 64 64 63 62 60 55 48 44 42 41 43 45 47 48 49 50 50 50 48 47 44 42 41 39 37 32
35 36 37 39 41 44 46 46 48 51 55 57 59 61 63 64 66 67 67 65 60 54 46 42 40 40 42 45 47 49 50 51 51 51 50 48 47 44 41 39 37 36 32
38 38 39 41 43 45 46 46 49 53 56 59 63 65 66 67 67 67 64 57 49 42 39 38 39 41 44 47 49 51 52 52 52 51 49 47 45 43 41 39 37 35 32
42 42 42 43 44 44 43 46 50 54 58 62 66 66 66 66 65 61 52 43 38 35 36 37 40 44 47 50 52 52 52 52 51 49 47 45 43 42 40 38 36 33 30
45 45 45 44 41 40 42 46 51 55 61 65 66 65 64 63 58 48 39 35 34 35 37 39 43 47 51 52 52 52 51 50 48 47 45 42 41 39 37 36 33 31 28
48 46 43 38 37 39 43 48 54 60 64 64 63 61 60 55 46 38 35 34 35 37 39 43 47 50 52 52 51 50 48 47 46 44 41 39 38 36 34 32 30 28 25
43 40 35 34 37 41 47 53 59 63 62 61 59 57 53 45 39 37 36 37 38 41 44 48 51 52 52 51 49 47 45 45 44 42 39 37 36 33 30 28 26 24 22
36 34 33 36 41 47 53 59 61 60 58 56 55 52 45 40 38 38 38 40 42 46 49 52 53 53 51 49 48 45 43 43 41 39 37 35 32 29 26 24 22 21 19
36 34 38 43 47 52 56 58 57 56 54 53 50 45 40 39 38 39 41 44 47 50 52 53 52 51 50 49 46 44 43 41 38 36 33 31 28 25 22 20 18 17 16
45 45 46 47 49 53 54 53 52 51 50 48 44 40 38 39 40 42 45 48 51 52 53 52 51 50 49 46 44 42 41 38 34 30 28 27 24 22 19 17 15 13 12
46 44 45 46 48 49 49 49 47 47 46 42 39 37 38 40 42 44 47 50 51 51 51 51 50 48 46 44 41 39 35 32 28 25 25 23 20 18 15 14 13 11 10
44 43 43 44 44 45 45 44 44 43 40 37 36 37 39 41 44 46 48 49 49 50 51 51 49 45 43 41 37 33 29 26 24 23 22 20 17 13 11 11 11 10 10
39 39 39 40 40 41 40 40 41 39 35 34 35 38 40 43 45 46 47 48 49 51 51 49 46 43 41 37 33 29 25 23 21 20 19 16 12 8 8 10 11 10 9
35 35 35 36 36 36 37 38 36 33 32 33 35 38 41 43 44 45 46 48 49 49 47 44 43 41 37 33 29 26 24 21 19 17 14 10 6 5 9 11 11 10 10
30 31 32 32 32 33 34 33 30 29 30 33 36 39 41 42 43 44 45 46 46 45 43 41 38 34 31 28 27 25 23 19 16 12 8 4 3 8 12 14 14 13 13
27 29 29 30 30 30 29 26 25 27 30 33 36 39 39 40 42 42 43 43 42 41 40 36 32 28 26 26 25 23 19 15 10 4 1 2 6 11 15 17 17 16 17
26 26 26 27 27 24 22 22 24 27 30 34 36 38 39 40 41 41 41 40 39 38 35 31 28 25 24 23 21 19 14 9 5 3 4 6 9 14 18 20 19 18 19
22 23 23 23 20 18 18 20 23 27 30 33 35 37 39 40 40 40 39 38 37 35 32 30 27 25 23 21 19 16 11 8 7 7 8 9 12 16 20 22 21 20 20

GEFSMW_500_meanwind_018.txt.gz
Wind_Speed
22 24 27 29 28 26 26 27 28 29 29 29 30 31 33 34 35 36 36 37 38 40 42 44 47 48 50 52 53 54 55 56 57 57 57 57 58 58 58 58 58 58 59
24 26 28 29 28 28 28 30 32 33 34 35 35 36 38 39 40 40 41 41 43 45 48 50 52 53 55 56 56 57 58 59 58 58 57 56 55 55 54 53 53 54 55
26 28 31 31 31 31 32 34 37 38 40 41 41 41 42 42 43 44 45 46 48 50 53 56 57 58 58 59 60 60 61 60 58 57 55 53 50 47 45 45 47 49 51
28 31 32 33 33 34 35 37 40 42 44 45 45 44 44 45 46 47 48 49 52 55 58 61 61 61 61 61 62 63 62 59 56 54 52 49 46 45 44 43 45 47 49
31 33 34 35 35 36 38 40 43 45 46 47 47 46 46 48 48 48 50 52 55 59 63 65 64 63 63 63 63 61 57 53 50 48 46 44 44 45 47 47 47 49 52
34 36 36 37 37 38 40 43 45 47 49 48 48 47 47 49 49 50 52 55 59 64 67 66 64 63 63 61 57 53 48 44 42 42 43 43 45 47 50 51 51 52 53
37 38 39 39 39 40 42 44 45 48 48 49 48 48 49 50 50 51 54 58 63 66 66 63 62 61 58 53 48 43 40 39 40 41 43 45 48 51 53 54 55 55 55
38 39 39 38 39 40 42 43 45 47 48 48 48 50 50 51 51 52 56 60 63 64 62 60 58 54 50 46 42 40 39 39 41 43 46 49 53 55 57 58 58 57 55
34 35 35 35 36 39 42 45 46 48 49 50 50 52 51 51 51 54 58 61 62 60 58 56 52 49 46 43 41 41 41 42 45 48 51 54 57 60 61 61 61 59 57
35 35 35 36 37 40 43 46 49 51 52 53 54 52 51 50 52 56 58 59 58 56 54 51 49 46 44 43 43 44 45 48 51 54 57 60 61 62 62 61 60 59 57
35 37 38 38 40 42 45 48 51 53 55 55 52 49 49 50 52 55 56 55 54 52 50 48 46 45 44 45 46 49 51 54 57 60 61 63 63 62 60 58 56 55 54
35 36 38 41 43 45 48 51 54 55 54 51 49 47 49 51 53 53 52 52 51 49 48 46 45 45 46 48 51 54 56 59 61 63 63 63 62 59 57 54 52 50 48
39 40 43 45 46 47 49 53 53 51 50 49 48 50 52 51 51 50 50 50 49 47 46 45 46 47 50 52 55 57 59 61 63 64 63 61 58 55 53 50 47 44 41
40 42 44 46 47 47 48 47 47 48 50 52 52 51 50 50 49 49 49 48 47 46 46 47 48 51 53 56 58 59 60 61 62 61 58 55 52 49 46 43 41 38 36
44 45 46 46 47 48 46 47 49 50 50 50 50 50 50 49 49 48 48 47 46 46 47 49 52 55 57 58 59 60 60 59 57 53 50 48 45 42 39 37 34 32 30
47 48 49 50 50 49 49 49 50 49 49 49 49 49 49 48 48 47 46 46 46 48 50 53 55 57 58 58 58 58 56 54 50 46 44 42 39 35 31 28 27 26 24
52 53 53 53 52 50 48 47 47 49 48 47 47 47 46 47 46 46 46 46 48 51 53 54 55 56 56 56 54 53 51 48 44 40 38 35 32 27 23 22 22 22 19
55 55 55 54 51 48 46 47 48 47 45 44 45 45 46 45 45 45 46 48 51 52 53 54 54 54 53 52 50 48 45 41 38 35 32 30 27 23 21 21 20 17 14
53 53 51 49 46 46 45 44 44 44 43 43 44 44 44 44 45 46 48 50 52 53 53 53 52 51 49 47 44 41 38 36 35 33 30 26 23 20 19 17 15 12 9
48 47 45 43 43 41 39 40 40 41 42 43 43 42 42 43 45 47 49 50 51 52 51 51 49 47 44 42 39 36 35 35 33 30 26 22 19 17 15 13 10 8 9
42 40 39 38 36 34 35 36 38 39 40 41 40 40 41 43 45 48 49 49 50 50 49 48 46 43 40 38 36 35 34 32 29 25 21 17 14 11 9 6 6 8 10
35 35 36 33 30 31 33 34 36 37 37 37 37 39 41 43 46 47 47 47 47 46 45 44 42 40 37 35 33 32 30 27 22 18 14 11 7 4 3 5 8 10 12
32 30 27 25 26 29 31 32 33 34 34 34 36 39 41 43 44 44 44 44 43 42 41 40 38 36 33 31 29 27 24 21 18 14 10 6 2 3 6 9 12 13 14
25 23 21 22 24 27 29 30 30 30 31 33 36 39 41 42 42 41 40 40 39 39 37 35 34 31 28 26 24 22 19 17 15 11 7 5 6 9 12 14 15 16 17
17 16 17 20 22 25 26 26 26 27 30 33 36 38 39 39 38 38 37 37 36 35 33 31 29 27 24 22 19 18 16 15 12 10 7 8 11 15 17 17 18 18 19
12 13 15 18 20 21 21 22 23 27 31 34 35 37 37 36 36 35 35 34 33 32 30 28 26 24 21 19 17 17 16 14 13 11 10 12 15 18 19 20 20 19 19

GEFSMW_500_meanwind_024.txt.gz
Wind_Speed
32 32 31 31 31 30 30 29 30 30 29 27 25 23 22 23 25 27 28 30 31 32 33 35 37 38 40 42 45 47 49 51 52 53 55 57 59 61 63 65 66 67 66
33 31 31 33 33 34 34 34 34 35 34 31 29 27 26 27 28 30 32 33 35 36 37 39 41 42 44 46 48 50 52 54 55 57 58 59 60 62 63 63 62 62 61
35 32 33 35 35 36 37 37 37 38 37 35 34 32 32 33 32 33 35 36 38 39 41 43 45 47 49 50 51 52 54 57 58 59 59 59 59 60 59 58 54 51 49
37 35 35 36 37 38 39 39 39 39 40 39 38 36 37 37 38 39 41 42 43 44 46 47 48 49 51 53 54 55 57 58 59 60 60 59 58 56 54 51 48 44 43
39 38 37 37 39 40 41 42 42 42 42 42 40 40 41 41 42 44 46 48 49 50 50 51 52 53 54 54 56 57 58 59 59 60 60 59 57 54 52 48 46 43 43
40 40 39 40 41 42 44 45 44 44 44 44 43 43 44 44 47 49 50 52 52 53 53 53 54 54 54 55 57 58 59 59 59 59 59 58 56 54 51 49 48 47 46
36 37 38 39 41 43 44 45 45 45 45 44 44 44 46 47 49 51 52 54 54 53 52 52 53 54 54 56 58 58 59 59 59 58 58 57 56 54 53 53 52 52 52
32 33 35 36 37 39 41 42 42 43 43 43 44 45 47 48 50 52 52 52 51 51 51 52 53 53 55 57 57 58 58 58 58 58 57 57 56 56 56 56 57 58 58
31 31 32 32 32 34 36 38 39 41 41 43 44 45 46 48 49 50 50 50 50 52 52 53 54 56 56 57 56 57 57 58 58 58 58 57 57 57 59 60 62 63 64
28 28 28 29 30 32 34 36 38 39 40 41 42 44 45 47 48 50 51 52 53 53 53 54 55 55 56 55 56 56 57 57 58 58 58 58 59 60 61 63 64 66 67
26 27 28 29 30 31 33 36 37 38 39 41 43 45 48 50 51 52 52 53 54 53 53 53 54 54 55 55 56 56 57 58 58 59 59 60 61 62 63 64 65 65 65
28 29 30 31 32 33 35 36 37 39 41 43 46 48 50 52 53 53 54 54 53 53 52 52 53 54 55 55 56 56 57 58 59 59 60 61 62 63 63 62 61 59 57
31 32 34 35 36 37 38 40 41 42 45 47 48 50 53 53 53 54 54 53 52 51 52 52 53 53 54 55 56 57 58 58 59 60 61 61 61 60 58 56 53 50 48
34 35 36 38 39 40 41 43 45 47 49 51 51 52 52 52 53 53 52 51 51 51 52 52 52 53 54 55 56 57 58 59 59 60 60 59 57 53 49 45 43 41 40
37 39 41 42 43 45 47 48 49 51 51 52 51 50 51 53 53 52 51 50 50 51 51 51 52 53 54 55 56 57 58 58 58 57 55 52 48 44 41 39 37 35 33
44 45 47 48 49 50 51 51 51 51 49 50 50 51 53 53 52 50 48 49 50 50 50 51 52 54 55 56 56 57 57 56 54 51 47 44 42 40 38 35 33 30 27
50 51 52 51 51 51 51 50 49 48 48 50 52 52 52 51 49 47 48 48 49 49 50 51 53 54 55 55 55 55 54 51 48 45 42 41 40 37 34 31 28 25 22
52 51 49 48 48 49 48 48 47 47 49 51 53 53 51 48 46 46 47 47 48 49 50 52 53 54 54 53 52 50 47 45 43 41 39 37 34 32 29 25 22 19 17
47 45 44 44 45 45 44 44 45 48 51 54 54 50 46 44 44 45 45 46 47 49 51 51 51 51 51 49 46 43 41 40 38 37 34 30 28 25 21 17 14 12 11
43 42 41 40 41 41 41 43 46 50 53 52 48 43 42 42 42 43 44 46 47 49 49 49 49 47 45 41 39 37 36 35 32 30 27 24 19 15 11 8 6 5 3
39 38 37 36 37 38 41 45 49 51 49 43 40 39 39 40 41 42 44 45 47 47 48 47 44 41 38 36 35 34 32 28 26 24 21 17 12 7 4 2 1 2 4
34 33 32 33 34 38 43 47 46 43 39 36 36 36 37 39 40 42 43 44 45 46 44 42 38 35 33 32 31 29 27 24 22 17 14 9 6 3 3 5 6 7 8
28 28 29 30 35 40 43 41 37 33 32 33 34 35 37 39 41 42 43 44 43 41 38 35 33 31 29 28 27 25 24 22 18 13 9 6 7 8 9 10 10 11 11
24 26 28 31 36 36 33 30 29 29 29 31 33 35 38 40 41 42 42 41 38 34 32 30 29 27 25 24 22 21 21 18 13 9 8 9 10 11 12 13 13 13 13
23 25 28 29 27 24 22 23 24 25 28 31 34 37 39 40 41 40 38 34 30 27 26 25 25 23 21 20 18 17 15 12 8 7 9 11 13 14 15 15 15 14 13
19 19 18 17 16 17 18 20 23 26 30 33 35 38 39 40 38 34 30 26 23 22 22 22 21 18 16 17 15 14 12 9 8 10 12 14 15 16 17 17 16 15 14

GEFSMW_500_meanwind_030.txt.gz
Wind_Speed
32 35 39 39 34 32 30 31 34 34 35 36 38 40 41 42 42 40 40 38 35 34 34 33 34 36 39 40 41 43 45 48 50 51 53 54 56 58 60 62 63 65 66
36 38 42 43 39 34 34 34 36 37 38 39 41 43 44 45 44 43 42 40 36 35 35 37 38 39 41 43 44 46 48 50 53 55 56 56 58 60 62 63 65 66 67
38 41 44 45 43 41 39 38 38 39 40 41 43 45 47 47 46 45 43 41 40 38 38 39 41 42 44 45 47 48 50 52 54 56 57 58 58 59 61 64 66 67 67
38 42 45 46 44 43 41 41 40 39 40 42 45 46 47 48 48 47 45 43 42 41 40 41 42 45 46 46 47 48 51 52 54 56 58 59 60 60 61 63 65 65 65
39 41 43 44 43 42 42 41 40 40 42 44 45 46 47 48 47 47 46 45 44 43 42 42 44 45 46 47 49 51 53 55 56 58 60 61 62 63 63 63 64 65 65
39 41 40 38 38 40 40 40 40 41 43 44 46 46 47 48 47 47 47 46 46 45 44 45 46 48 49 50 51 53 55 57 59 60 61 62 63 64 64 64 65 66 67
39 40 37 36 37 38 38 39 40 42 43 44 46 47 47 48 48 48 48 47 48 46 46 46 49 51 53 53 54 56 58 60 60 61 61 62 62 64 65 66 67 67 67
38 38 37 36 36 36 37 38 39 41 42 44 45 46 47 47 48 48 48 48 48 48 48 50 52 54 56 56 57 58 59 60 60 60 60 61 63 65 66 67 68 67 66
32 33 33 33 34 35 36 38 39 40 41 42 43 45 46 46 46 48 48 47 48 50 51 53 56 57 58 58 58 59 60 61 60 60 61 63 65 67 68 68 68 68 66
27 28 28 30 32 34 35 36 38 39 40 42 43 45 46 46 46 46 46 48 50 52 55 57 58 58 58 58 59 60 61 61 61 62 64 65 67 68 69 69 69 69 68
33 32 30 30 32 34 36 37 38 39 41 42 44 45 46 46 47 48 49 51 53 55 57 58 59 59 58 59 60 61 62 62 62 64 65 67 68 68 69 69 69 68 68
37 35 31 30 32 34 36 37 39 40 42 43 45 46 47 48 50 52 53 54 55 57 58 60 60 60 61 62 61 61 62 62 63 64 66 67 68 68 68 68 67 66 64
35 32 30 32 34 36 37 38 40 42 43 45 47 49 51 52 54 55 55 56 57 58 61 62 62 62 62 61 60 60 61 62 64 65 67 67 68 67 66 65 62 58 55
29 32 35 37 38 39 41 42 44 46 47 50 52 53 54 55 55 55 56 58 59 60 63 64 63 62 61 59 59 60 61 62 64 65 66 66 65 63 60 56 53 50 47
44 46 45 44 45 45 46 47 49 51 52 54 55 56 56 55 55 56 57 60 63 64 65 64 64 62 58 57 58 59 61 62 63 63 63 61 58 55 52 49 46 44 41
54 53 52 50 50 49 50 51 52 54 55 56 56 56 56 56 56 57 60 63 65 67 65 63 59 56 55 55 57 59 60 61 61 60 57 54 51 48 46 44 41 38 35
54 54 54 54 53 52 52 52 53 53 54 55 55 54 55 56 58 59 61 65 66 64 61 57 54 53 53 55 56 57 58 57 56 53 50 47 44 42 39 36 33 30 25
52 53 53 54 53 52 51 51 51 51 51 51 51 52 54 57 59 61 64 66 64 59 55 52 51 51 52 53 54 54 53 51 48 46 43 40 37 34 31 28 24 20 16
49 50 50 50 50 49 48 48 47 47 48 49 49 52 55 58 60 61 62 60 57 52 49 49 49 50 51 51 50 49 46 43 41 39 37 34 30 28 24 19 15 12 9
47 47 47 47 46 45 45 44 44 44 45 47 49 52 56 58 57 56 54 51 48 46 47 48 48 48 47 46 44 41 37 35 34 33 31 27 24 20 16 12 9 7 6
43 42 42 41 40 40 39 39 40 41 43 46 50 53 54 53 50 48 46 45 45 46 46 46 45 43 40 38 35 32 30 28 27 25 22 19 16 13 9 7 6 6 7
37 37 36 35 35 34 34 36 38 41 43 46 48 48 47 46 44 43 43 43 43 43 41 40 38 35 32 30 28 27 25 23 20 17 14 12 10 8 6 7 8 9 9
32 31 31 30 30 30 32 35 38 41 42 43 41 40 39 39 40 41 41 40 39 36 34 32 29 27 25 25 24 23 20 17 14 11 9 7 6 6 8 9 10 11 11
27 26 26 26 27 29 32 35 36 37 36 34 33 34 35 36 37 38 36 34 31 28 26 24 23 22 22 21 20 19 16 13 9 7 6 6 8 10 11 12 12 11 11
21 21 22 23 25 27 28 28 28 28 29 30 31 33 34 34 33 30 27 25 22 21 20 20 20 20 19 18 16 14 12 9 6 5 7 9 11 13 13 12 11 11 10
17 18 20 20 21 21 22 23 24 26 28 30 31 31 30 27 25 22 20 19 18 19 20 20 19 18 16 15 13 10 8 5 5 8 10 12 13 12 11 11 11 10 10

GEFSMW_500_meanwind_036.txt.gz
Wind_Speed
33 36 37 36 34 33 33 33 32 33 34 36 37 37 36 34 33 34 35 36 37 37 39 39 37 37 35 35 36 37 40 42 44 45 46 47 48 50 51 51 53 55 56
35 36 37 37 38 37 35 35 36 37 36 36 39 40 39 37 37 37 37 38 39 40 40 40 39 37 37 37 37 39 41 44 45 46 47 47 49 51 52 54 56 58 59
35 37 38 38 37 37 35 36 38 39 39 40 42 41 41 40 38 38 38 39 41 41 42 42 41 39 38 39 40 42 43 45 46 48 49 49 50 52 55 58 59 60 61
37 36 36 36 36 36 36 38 40 41 43 44 43 44 41 39 39 39 40 41 42 43 43 43 41 41 41 42 43 44 45 46 48 50 51 53 54 55 57 59 61 62 62
36 35 34 34 35 36 37 39 41 44 45 44 45 43 40 39 39 40 41 41 43 44 44 44 44 44 45 45 46 47 47 48 50 52 54 57 59 60 60 59 60 61 62
36 35 33 33 34 36 39 42 44 46 46 45 44 43 41 40 40 41 42 43 44 45 45 46 46 47 47 47 48 48 49 51 53 55 58 60 61 62 61 60 60 61 62
32 31 30 32 34 38 42 45 48 48 47 44 44 44 43 42 42 43 44 45 46 46 47 47 48 48 48 49 49 50 52 54 56 59 61 61 62 62 62 62 61 61 62
27 29 31 33 36 40 43 46 47 47 47 46 45 44 44 44 44 45 47 48 48 49 49 50 50 50 50 51 52 54 55 57 59 61 61 61 62 63 63 63 63 63 64
29 31 33 36 39 42 44 45 45 45 46 43 42 43 44 45 47 49 50 50 51 52 52 52 52 52 53 55 56 57 58 60 61 61 62 62 63 64 64 64 66 67 66
33 35 37 39 41 43 46 45 42 41 40 40 41 43 45 47 50 51 52 53 54 55 55 56 56 58 58 59 60 60 61 61 62 62 62 63 63 64 64 65 67 69 70
36 38 39 40 42 44 45 44 43 41 38 39 41 45 47 50 52 54 55 56 57 58 59 60 61 61 62 62 62 62 62 63 63 63 62 62 64 64 65 66 68 70 72
37 39 39 41 43 44 45 44 42 39 38 41 44 47 50 53 55 57 58 60 61 62 63 63 64 64 63 63 63 62 62 63 63 62 63 63 63 63 64 66 67 69 70
41 42 42 43 43 44 45 45 44 44 45 46 48 51 54 55 57 59 61 62 63 64 64 63 63 63 62 62 61 60 61 62 62 63 63 62 62 62 63 64 65 66 65
43 44 44 45 45 46 48 49 49 51 52 53 54 55 56 58 59 61 62 62 62 62 61 60 60 60 59 59 60 61 61 61 61 61 60 60 60 60 61 61 61 59 56
46 46 47 49 52 54 55 55 56 56 57 57 57 57 57 57 58 58 58 58 59 58 58 58 58 59 59 59 60 61 60 60 58 58 58 58 58 58 58 56 53 49 45
48 50 52 55 57 58 58 58 57 58 57 57 56 56 55 55 55 55 54 54 55 55 56 56 57 57 58 59 59 59 57 56 55 55 55 55 55 54 51 47 43 39 34
53 55 56 58 58 57 57 57 57 57 56 56 55 54 53 51 50 51 51 52 53 54 54 55 57 58 58 58 57 55 54 54 53 53 52 51 49 44 40 36 32 28 25
58 58 57 57 57 56 56 55 55 54 53 52 51 49 48 48 48 48 49 50 51 52 54 56 56 56 55 54 52 51 51 50 50 48 46 43 39 35 30 25 22 20 18
55 55 54 54 54 53 53 53 52 51 49 47 46 45 44 45 45 46 48 50 52 53 54 54 53 51 49 48 47 47 46 46 44 41 38 33 29 25 20 17 15 14 13
51 51 51 51 51 50 49 49 47 46 44 43 42 42 42 43 45 46 49 51 51 50 49 47 45 45 44 44 43 42 40 38 36 33 29 26 21 16 13 11 10 10 10
47 47 47 47 46 45 44 44 42 41 40 39 40 40 42 44 45 46 46 45 44 43 42 41 41 40 40 38 36 33 31 29 27 25 22 18 13 10 8 7 7 8 9
43 43 43 42 41 40 39 38 37 37 37 37 38 39 40 41 40 40 39 39 38 38 37 37 35 34 32 30 29 27 25 23 20 17 14 10 7 5 5 5 7 8 10
38 38 37 36 35 34 33 33 33 33 34 35 35 36 36 36 36 36 36 35 34 33 31 30 29 28 27 26 24 22 19 15 12 10 6 3 3 4 5 7 8 9 11
31 30 29 28 28 28 29 30 30 31 31 32 32 33 33 33 33 32 31 30 28 27 25 24 24 23 23 22 21 17 13 9 5 2 2 4 5 6 7 8 9 10 11
24 23 22 22 23 24 25 26 26 28 29 31 31 31 31 30 28 27 26 24 23 22 21 20 20 20 20 18 15 12 7 3 2 4 6 6 6 7 8 9 10 10 11
17 17 18 19 20 21 23 25 27 28 29 29 29 28 27 26 24 22 21 20 20 19 18 18 18 18 16 13 9 5 1 3 6 7 7 7 7 8 9 10 10 10 11

GEFSMW_500_meanwind_042.txt.gz
Wind_Speed
25 25 24 22 22 22 23 24 25 27 29 31 33 35 36 35 36 36 36 34 31 31 30 30 30 30 31 32 32 32 33 33 34 36 38 40 42 43 44 45 47 49 50
29 28 26 25 24 24 24 25 27 28 30 33 36 39 40 39 40 39 37 33 30 30 29 29 29 30 31 32 33 34 34 35 37 39 40 41 43 45 46 47 49 51 52
31 29 28 27 25 25 26 27 28 31 34 37 39 41 42 42 43 39 36 33 30 28 27 27 29 30 32 34 35 36 37 39 40 41 43 44 45 46 47 49 51 53 55
32 31 30 28 27 27 28 30 32 35 37 39 41 43 44 46 43 38 36 33 30 29 28 29 30 32 34 35 37 39 41 42 43 45 46 47 48 49 50 51 53 56 58
33 31 31 30 30 31 32 35 37 38 39 41 43 45 47 48 43 39 35 33 32 30 30 31 32 34 36 38 41 43 44 46 47 48 49 51 52 53 54 55 57 59 61
34 33 33 33 33 34 36 38 40 40 41 43 45 46 46 44 42 39 36 34 32 32 32 34 36 38 40 43 45 47 49 50 51 52 54 55 57 58 59 60 61 62 63
34 33 34 35 36 37 38 40 41 42 43 44 45 46 45 44 42 40 39 37 37 36 37 39 41 43 45 47 50 51 53 54 56 57 59 60 62 63 64 65 65 64 64
33 33 34 35 36 36 38 39 40 42 43 44 44 43 43 43 43 43 43 42 41 42 43 44 46 48 51 53 54 56 57 59 61 62 63 64 65 66 66 66 66 64 63
32 32 33 33 34 34 36 38 39 41 42 43 44 46 46 45 46 47 47 46 46 47 48 50 52 54 56 57 59 60 62 63 63 64 65 65 65 65 65 65 65 65 63
30 30 31 32 33 34 35 37 39 41 43 45 46 47 48 48 48 49 50 50 51 51 53 56 58 59 60 61 62 63 64 63 64 64 64 64 65 65 65 64 64 64 64
31 32 33 34 35 36 37 39 41 43 46 47 49 49 51 52 52 53 54 54 55 57 58 60 61 62 62 63 63 63 64 64 64 64 64 64 63 63 63 63 64 64 65
32 33 34 36 37 38 40 42 44 46 48 49 51 52 54 55 56 57 57 58 59 59 61 62 62 63 63 63 62 62 62 63 63 63 62 62 62 62 62 63 63 63 63
35 36 37 38 39 41 43 45 47 50 52 54 55 57 58 59 59 60 61 61 62 61 62 62 62 63 62 62 61 61 61 61 61 60 60 60 60 61 61 62 62 62 61
38 39 40 41 43 45 47 49 52 54 56 57 59 61 61 62 63 63 63 63 62 61 61 61 61 61 60 60 61 60 60 59 59 58 58 58 59 60 60 60 59 58 56
40 42 43 45 47 49 51 53 55 57 58 60 62 62 63 63 63 62 62 61 60 60 60 60 59 59 58 58 58 57 56 56 56 57 58 58 58 58 57 56 54 53 51
44 45 47 49 52 54 56 57 59 60 61 62 62 62 61 61 60 59 59 59 58 58 57 57 57 57 56 55 55 55 56 56 56 56 56 56 55 54 53 51 49 46 42
47 49 51 53 55 58 59 60 61 62 61 61 60 58 58 57 57 56 56 56 55 55 54 54 54 54 53 53 54 54 54 54 53 52 51 50 50 49 46 43 40 36 32
49 52 54 55 57 58 59 59 59 59 58 57 57 56 55 55 54 54 53 52 52 51 51 51 51 51 51 52 51 51 51 50 49 48 46 44 42 39 36 32 29 26 23
50 51 53 54 56 56 56 56 56 55 55 54 53 52 52 51 50 50 49 48 48 47 47 47 48 48 48 48 47 47 46 46 44 42 40 37 33 29 25 22 20 19 18
48 49 50 51 52 52 52 52 52 51 50 49 48 48 47 46 45 45 45 45 45 45 45 44 44 44 44 44 43 41 40 39 38 35 32 27 23 19 17 14 13 14 15
44 46 47 48 48 48 48 48 47 46 45 44 42 42 41 41 42 42 42 42 42 42 42 42 41 41 40 38 37 34 33 31 29 27 23 18 14 12 10 10 10 12 14
41 42 43 43 43 43 42 41 40 39 38 38 38 38 38 39 39 39 39 39 39 39 38 37 36 35 33 32 29 27 26 24 22 18 14 10 8 7 8 9 10 12 14
38 38 38 38 37 36 35 34 34 33 34 34 35 35 36 37 37 37 37 37 36 35 33 32 31 29 27 25 23 21 20 17 13 9 6 5 5 6 8 9 11 13 14
33 33 32 31 30 29 28 29 29 30 31 33 34 35 36 36 36 35 34 33 31 29 28 26 25 23 21 19 18 16 13 8 4 2 3 4 5 7 8 9 11 13 15
26 25 24 24 23 24 25 26 28 30 32 33 34 34 34 33 32 30 29 27 25 23 22 21 20 18 17 15 13 9 4 2 3 4 5 5 6 7 8 10 11 13 15
19 18 18 19 21 22 25 27 29 31 32 33 32 31 30 28 26 25 23 21 19 18 18 16 15 14 12 10 6 3 5 7 7 6 6 6 7 8 9 11 12 14 16

GEFSMW_500_meanwind_048.txt.gz
Wind_Speed
23 23 23 25 25 25 25 25 26 25 26 26 27 29 31 34 36 38 38 38 37 39 40 39 38 38 38 37 37 37 35 32 32 32 31 30 31 33 34 35 38 39 41
26 26 27 27 28 28 28 28 29 29 29 30 30 32 34 36 39 40 40 40 40 40 37 34 33 33 33 34 34 33 32 31 30 31 32 32 33 34 36 38 40 42 44
30 30 30 30 30 30 30 31 31 31 31 32 33 34 37 39 41 41 42 43 41 37 35 31 29 27 27 28 28 29 30 30 30 32 33 35 38 39 40 41 44 46 48
32 32 32 32 31 31 31 32 32 33 33 34 35 37 39 40 42 43 42 42 42 39 34 32 30 28 27 28 28 29 30 31 33 35 37 40 42 45 46 47 48 50 52
34 33 33 32 31 31 32 33 34 35 36 37 38 39 41 42 43 42 42 42 41 39 34 32 32 32 31 32 32 32 33 35 38 39 41 44 47 49 51 53 55 56 57
36 34 33 32 31 32 33 34 36 37 38 39 40 41 42 42 42 42 42 42 42 39 36 37 36 35 35 35 36 38 39 41 43 45 47 49 51 54 55 57 58 60 61
34 33 32 32 32 33 34 36 37 38 39 40 41 42 42 42 42 42 42 41 41 41 40 39 38 39 39 40 42 43 44 46 48 50 52 53 55 57 59 60 61 62 64
31 30 30 30 31 32 33 34 36 37 38 40 41 41 42 42 42 42 42 42 42 42 43 43 43 44 45 46 47 48 49 51 52 54 55 57 58 60 61 62 63 64 64
28 28 28 29 30 31 32 33 35 37 38 40 41 42 42 42 43 43 43 43 45 46 47 48 49 49 50 51 51 52 53 54 55 56 57 58 60 61 61 62 63 64 64
25 26 27 28 29 31 32 34 36 37 39 40 41 42 43 44 44 45 45 47 49 50 51 52 53 53 53 53 54 54 54 55 56 57 58 59 60 60 61 62 63 63 63
24 25 27 28 30 32 33 35 36 38 39 41 42 43 44 45 46 48 49 51 52 53 55 55 56 56 56 55 55 56 55 56 56 57 58 59 59 60 61 61 60 60 60
25 27 28 30 31 33 34 36 37 39 40 42 44 45 47 49 51 53 54 56 57 58 59 59 59 58 57 56 56 56 56 56 56 57 57 57 57 57 57 57 57 58 59
29 30 32 33 34 36 37 38 40 42 43 45 47 48 50 52 54 56 58 60 61 61 61 60 59 58 57 56 56 55 55 55 55 55 55 55 54 54 54 54 55 56 56
33 35 36 37 38 38 40 41 42 44 46 48 50 51 54 56 57 59 60 61 61 61 61 60 59 58 57 56 56 55 54 54 54 53 52 51 51 51 52 53 53 53 53
36 37 38 39 40 41 43 44 46 48 49 51 52 54 56 58 59 60 60 60 61 60 59 59 58 57 56 55 54 53 52 51 50 50 49 49 50 50 50 51 50 49 48
39 39 40 41 42 43 45 47 48 49 51 53 54 55 57 58 59 59 59 59 59 59 58 57 56 55 54 53 52 50 49 48 48 48 48 48 48 48 48 47 45 43 42
40 41 42 43 44 45 46 48 49 50 52 54 55 55 56 57 57 57 57 57 56 56 55 54 53 52 51 50 48 47 47 46 46 46 46 47 46 45 44 42 39 37 33
39 40 41 42 43 44 46 48 49 50 51 53 53 54 54 55 54 54 54 53 52 51 50 50 49 49 48 47 47 46 45 45 44 44 44 43 42 40 37 34 32 29 28
39 40 41 42 43 44 45 47 48 49 50 50 51 52 52 51 50 50 49 49 48 48 47 47 47 46 46 45 44 44 44 43 42 41 39 37 35 31 28 25 24 23 22
38 39 40 41 42 43 44 45 46 47 48 49 49 48 47 47 46 46 45 45 45 45 45 45 45 45 44 43 43 42 41 39 38 35 32 29 25 22 20 19 18 17 18
37 38 39 40 41 42 43 44 45 45 45 45 44 44 44 43 43 43 43 44 44 44 44 44 43 42 41 40 38 36 34 32 30 27 24 20 16 14 14 14 14 15 16
35 36 37 38 39 40 41 41 41 41 41 41 40 40 41 41 42 42 42 42 42 42 41 39 38 36 34 32 30 28 26 24 21 18 15 11 10 9 10 11 12 13 14
33 34 35 36 37 37 37 37 37 37 37 38 38 39 40 41 41 41 40 39 38 36 34 33 31 29 27 25 23 20 18 16 13 10 7 5 6 7 8 10 11 12 13
30 31 32 32 32 32 32 32 33 34 36 37 38 39 39 39 38 36 34 32 30 28 26 25 23 22 20 18 16 14 11 8 5 2 2 3 4 6 8 9 10 11 13
26 26 26 26 26 27 28 30 32 34 35 36 36 36 35 33 31 28 26 24 22 20 19 18 17 16 14 12 9 6 3 1 2 2 2 3 5 6 7 9 10 12 13
21 21 21 22 23 25 28 30 32 33 33 33 32 30 28 25 23 20 18 17 16 14 13 12 11 9 7 5 2 2 4 5 5 5 5 6 7 8 9 10 12 13 14

GEFSMW_500_meanwind_054.txt.gz
Wind_Speed
23 23 24 23 22 22 21 21 23 24 25 26 28 30 30 31 32 34 34 35 34 35 34 35 34 35 35 33 32 31 30 29 28 27 26 28 28 30 31 32 33 35 36
26 26 25 24 24 24 24 24 26 27 29 30 31 32 33 34 35 35 36 36 36 36 36 37 36 36 35 33 32 32 31 29 28 28 28 28 29 30 31 32 34 36 38
27 26 27 28 27 27 27 28 29 31 32 33 34 35 36 37 37 38 38 39 39 39 39 39 38 37 36 35 33 33 33 32 32 31 32 32 32 33 34 35 38 40 41
29 30 30 29 30 31 30 31 33 34 35 36 37 37 38 39 39 40 40 41 41 42 41 41 40 39 38 37 35 35 35 35 35 36 36 36 37 38 39 41 43 45 46
30 31 32 33 33 34 34 34 36 36 37 37 38 38 39 40 41 42 43 43 44 43 43 43 42 41 40 39 38 38 38 38 39 39 40 41 42 44 45 47 49 51 53
31 33 34 35 36 36 37 37 37 37 37 38 38 39 41 42 43 44 45 45 45 45 44 45 44 43 42 42 42 42 42 43 43 44 45 46 48 49 50 52 53 54 56
33 34 35 36 37 37 37 37 37 37 37 37 38 40 42 44 45 46 46 46 46 46 46 46 46 46 45 46 46 46 46 47 48 49 49 50 52 53 54 56 57 58 59
36 36 36 36 36 36 35 36 36 36 36 37 39 41 43 44 45 46 47 47 47 47 48 48 48 48 49 49 49 50 50 51 52 52 53 54 55 56 57 59 60 61 62
38 36 35 33 33 33 34 35 35 36 37 38 40 41 43 45 46 47 48 48 49 50 50 50 51 52 52 53 53 53 54 54 55 55 56 56 57 58 59 61 62 63 63
34 33 32 31 31 32 33 34 35 36 37 39 41 42 44 45 47 48 49 51 51 52 52 53 54 55 55 56 57 57 57 58 58 58 58 58 59 60 60 61 62 63 63
28 29 29 30 30 31 33 34 35 37 38 40 42 44 45 47 48 50 51 52 53 54 55 56 58 59 59 60 60 60 60 59 59 59 59 59 59 59 60 60 61 61 61
26 28 29 30 31 32 33 35 36 38 40 42 44 45 47 48 50 51 53 54 55 57 58 59 60 61 61 61 60 61 61 61 60 60 59 59 58 58 58 57 58 58 58
26 28 29 31 32 33 35 36 38 39 41 43 45 47 48 50 51 53 55 56 58 59 60 60 60 61 61 61 61 62 61 61 60 59 58 57 56 55 55 55 55 55 55
27 29 31 33 34 36 37 39 41 42 44 46 48 49 50 51 53 55 56 57 59 60 60 60 61 61 61 61 61 60 59 58 57 56 55 54 53 52 52 52 52 53 53
29 32 34 36 38 39 41 43 45 46 47 49 50 51 52 54 55 56 57 58 59 59 60 60 60 60 60 59 58 58 57 55 54 53 52 51 50 49 49 49 49 50 50
33 35 37 39 41 42 43 45 46 47 47 48 49 50 52 54 55 56 57 58 58 59 59 58 58 58 57 57 56 54 53 52 51 50 49 48 47 47 47 47 47 46 45
36 37 39 41 41 42 43 44 45 46 47 48 50 50 52 53 53 54 55 56 56 56 56 56 56 55 54 53 52 51 50 50 49 47 47 46 46 45 44 43 42 40 38
36 36 37 38 39 40 42 43 45 46 48 49 50 51 51 52 53 53 54 54 54 54 54 53 53 52 51 51 50 49 48 46 46 45 44 43 42 41 39 38 35 33 31
35 35 37 38 38 41 42 44 46 47 47 48 49 49 50 51 51 52 51 51 51 51 51 51 50 49 49 48 47 45 44 43 42 41 39 38 37 35 32 29 27 25 25
33 35 36 38 40 41 42 43 44 44 45 46 47 48 48 48 48 48 49 49 49 49 48 48 47 46 45 43 42 40 39 37 36 34 32 30 28 26 23 21 19 19 18
33 34 36 37 38 39 40 41 42 43 44 44 45 45 45 45 46 46 47 47 46 45 44 43 42 41 39 37 36 35 33 30 28 25 23 20 18 16 15 14 13 13 14
32 33 34 35 36 37 38 39 40 40 40 41 42 43 43 44 45 44 44 42 41 40 38 37 35 34 32 30 29 27 24 22 19 16 13 11 10 9 9 9 9 10 11
30 31 32 33 34 35 35 36 36 37 38 39 40 41 42 42 41 40 38 35 34 32 30 29 27 26 24 22 19 17 15 13 10 8 6 5 4 4 5 6 8 9 11
28 29 29 30 30 31 32 33 34 34 36 37 38 37 37 36 34 31 29 27 26 24 23 21 20 19 16 14 11 9 7 6 4 2 2 2 3 4 4 6 8 10 11
25 26 26 27 28 28 30 30 31 32 33 33 33 33 31 29 26 24 22 20 19 18 17 16 14 12 10 8 6 4 4 3 4 4 4 4 5 6 7 8 10 11 12
22 23 24 25 26 26 27 28 28 29 30 30 30 28 25 22 19 17 16 16 15 14 13 12 10 9 8 7 6 6 6 6 6 7 7 8 9 9 10 10 11 11 13

GEFSMW_500_meanwind_060.txt.gz
Wind_Speed
24 24 23 22 21 20 19 18 17 16 17 19 20 22 23 23 24 25 26 27 27 27 27 27 27 26 27 26 25 25 25 25 26 26 25 25 25 26 26 28 29 30 31
25 25 25 23 22 21 20 20 18 19 19 21 24 26 27 27 29 30 31 32 32 32 32 31 31 30 30 29 29 28 28 28 29 29 28 28 28 29 30 32 33 34 35
25 25 26 25 24 22 23 23 22 23 23 25 27 29 31 32 34 34 35 36 37 36 36 34 34 32 32 32 32 31 31 31 31 31 32 32 31 32 33 35 37 39 40
27 28 27 27 26 26 26 26 25 25 27 29 30 32 34 36 37 37 38 38 38 38 38 38 36 36 37 36 34 34 34 34 35 36 36 36 37 37 38 40 42 43 45
28 29 29 30 30 29 29 29 30 31 33 33 33 34 36 38 39 38 38 37 37 37 38 38 38 39 39 37 37 38 38 39 39 40 40 41 42 43 44 45 46 48 50
29 30 31 32 33 33 33 33 35 35 35 36 36 38 39 40 40 39 39 39 39 39 40 41 42 42 41 41 41 41 42 43 43 44 45 46 47 48 49 50 51 53 55
32 33 33 34 36 36 36 36 37 38 39 40 40 41 41 41 41 40 40 40 41 41 42 44 45 44 45 45 44 45 46 47 47 48 49 51 52 53 54 55 56 57 58
35 35 36 37 38 38 38 38 39 40 42 42 42 42 41 41 41 42 42 43 43 44 44 45 46 45 46 47 48 48 49 51 52 53 54 56 57 58 59 59 60 60 61
35 37 38 39 40 40 40 40 40 41 41 42 42 42 42 42 42 43 44 44 45 46 47 48 48 49 50 51 52 53 54 55 56 58 59 60 61 62 62 62 62 63 63
36 36 38 39 39 39 39 40 41 40 40 40 40 41 42 43 44 45 46 47 48 49 49 50 51 53 54 56 57 58 58 59 60 61 61 62 62 62 63 63 64 64 64
36 37 37 37 37 38 39 40 40 39 39 40 40 41 43 44 45 46 48 49 51 52 53 55 56 57 58 59 60 61 62 62 62 62 62 63 63 64 64 64 64 63 63
35 36 36 36 37 38 38 37 37 38 39 40 41 42 43 44 46 48 50 52 53 55 56 58 60 61 61 62 62 63 63 63 64 64 65 65 64 64 63 63 62 61 60
31 34 35 34 35 35 35 35 36 37 39 40 41 42 44 46 48 50 52 54 56 58 59 60 61 62 63 64 64 64 64 65 65 65 64 64 64 63 61 60 59 59 58
30 31 32 33 34 34 34 34 36 38 39 41 43 45 47 49 50 53 54 55 57 59 60 61 62 63 64 64 64 64 64 64 64 64 63 63 61 60 59 58 57 56 55
28 29 30 30 31 32 34 35 37 39 41 43 45 47 48 50 52 53 54 56 57 58 59 60 61 62 63 63 63 63 63 62 62 62 61 60 59 57 56 55 54 53 52
28 28 29 29 30 32 34 36 38 40 41 43 45 46 48 49 51 51 53 55 56 57 58 59 59 60 61 61 61 60 60 59 59 58 57 55 54 52 51 50 50 49 47
29 28 28 30 30 32 34 35 37 39 41 43 45 46 48 49 50 51 52 53 54 55 56 56 57 58 58 57 57 56 56 55 54 52 51 49 48 47 46 45 44 43 41
30 29 29 29 30 31 32 34 36 38 40 42 43 44 46 48 49 49 50 51 52 52 53 54 54 55 54 54 53 52 51 50 49 47 45 43 42 40 39 38 37 35 33
26 26 27 27 29 30 31 33 35 36 38 40 41 42 43 44 45 46 48 49 50 51 51 51 51 51 51 50 49 47 45 43 41 39 36 35 33 32 30 28 27 26 24
26 26 27 27 29 31 32 32 34 35 37 38 39 39 41 42 43 45 46 48 48 48 48 47 45 44 43 43 41 39 37 34 32 29 27 26 24 23 21 19 18 17 16
24 25 27 28 29 30 31 31 33 34 34 35 36 37 38 40 41 43 43 43 42 41 39 38 37 35 34 33 31 28 25 23 21 20 18 17 15 14 12 12 11 11 11
23 25 26 27 27 28 28 29 30 31 31 32 33 34 35 36 38 38 37 36 34 32 31 30 28 27 25 22 19 17 15 14 13 12 10 8 7 7 7 7 7 7 8
23 24 24 25 25 26 27 28 28 28 29 29 30 31 32 33 33 32 30 29 28 26 25 23 21 19 17 15 12 10 9 7 7 6 5 4 4 5 5 6 6 7 8
20 21 21 22 23 24 25 25 25 25 25 26 27 28 28 29 28 27 25 24 23 22 20 19 17 15 13 10 8 7 6 5 5 5 5 5 6 6 7 7 8 9 10
17 18 19 21 22 22 22 22 22 22 22 23 24 24 24 24 23 23 22 20 19 18 17 16 14 12 10 8 7 6 6 6 7 7 8 8 8 8 9 9 10 11 12
16 16 17 18 19 20 20 20 19 19 20 20 20 20 20 19 20 19 18 17 16 15 14 13 12 11 9 8 8 8 8 9 9 10 10 10 10 10 11 11 12 13 13

GEFSMW_500_meanwind_066.txt.gz
Wind_Speed
24 22 20 20 19 19 20 21 22 23 24 25 24 25 25 25 25 26 27 27 28 28 28 29 30 31 31 32 32 31 31 30 29 29 29 29 29 30 31 32 32 33 33
26 23 22 22 22 22 21 21 22 24 25 25 26 27 29 29 29 30 29 31 31 32 33 33 34 34 33 33 32 32 33 31 31 32 33 33 32 33 34 35 36 37 37
26 25 25 24 23 23 23 21 22 25 26 27 29 29 31 31 32 32 32 33 34 33 34 34 35 37 37 35 34 35 35 33 34 35 36 36 35 37 38 39 39 40 41
28 27 27 25 24 24 23 23 23 25 26 28 30 32 33 33 34 35 34 33 33 34 35 35 36 37 34 34 35 36 36 36 38 39 38 38 39 39 40 41 43 44 45
29 29 28 27 26 25 24 25 26 27 28 31 32 34 36 36 37 37 37 35 34 36 38 37 38 39 37 38 38 39 40 40 41 40 40 39 41 43 44 45 47 48 49
31 30 29 28 27 27 27 29 28 28 30 31 33 36 37 38 39 40 39 38 38 39 40 40 40 40 41 41 42 42 43 43 43 43 43 44 46 47 48 50 51 52 54
31 31 31 30 30 30 31 32 31 31 33 35 37 38 39 39 41 41 40 40 40 41 41 42 42 43 44 44 44 45 45 45 46 47 48 50 51 52 53 54 55 56 58
31 32 33 32 33 33 33 34 35 35 36 37 39 40 41 42 42 42 43 43 43 43 43 44 44 45 46 47 47 48 48 49 51 52 54 55 56 56 57 58 59 60 61
33 33 34 35 36 37 38 38 39 39 39 41 41 42 43 42 43 43 43 44 44 45 45 46 47 48 48 49 50 51 52 53 54 56 57 58 59 61 61 62 63 64 64
34 35 37 38 39 39 39 40 40 40 41 41 42 42 43 43 44 44 45 45 46 46 47 48 49 50 51 52 53 55 56 57 58 59 60 62 63 64 65 65 66 66 67
36 37 37 38 38 39 40 40 39 41 41 41 41 42 42 43 44 44 45 45 46 47 48 50 51 52 54 55 56 58 58 59 61 62 63 64 65 66 66 66 66 67 66
36 36 36 37 38 39 39 40 40 40 40 41 40 40 40 41 42 43 44 46 48 49 50 52 53 54 56 57 58 60 61 62 63 64 65 66 66 66 66 66 65 65 65
36 36 36 35 35 36 36 37 38 38 38 38 39 39 40 41 43 44 46 47 49 50 52 53 55 56 58 59 60 62 63 63 64 65 65 65 65 65 64 63 62 61 60
35 33 33 33 32 32 34 35 36 36 36 36 37 38 39 42 43 44 46 48 50 51 53 55 56 58 59 60 61 63 64 64 65 65 65 65 63 62 60 58 56 55 53
35 34 33 33 33 32 33 34 33 33 34 35 37 38 40 41 43 45 47 49 50 52 54 55 57 58 60 61 62 63 64 64 64 63 62 61 58 56 53 51 49 47 46
33 33 33 33 33 32 32 33 33 33 34 35 36 38 40 41 43 45 47 49 50 52 54 55 57 58 60 61 62 63 63 62 60 58 56 53 50 48 46 44 42 41 39
28 29 30 29 30 30 31 32 32 32 33 35 36 37 39 41 43 44 46 47 49 50 52 53 55 57 58 59 59 58 57 54 51 49 46 43 41 39 38 36 35 34 33
26 25 25 26 27 27 28 29 29 30 31 33 34 36 38 40 41 42 44 45 46 48 50 51 52 52 52 52 50 48 45 42 40 37 35 34 32 30 29 28 27 26 25
24 23 24 25 25 26 27 27 28 29 31 32 33 35 36 38 39 40 41 42 44 45 47 48 47 47 45 43 41 38 35 33 30 28 27 25 23 22 21 20 20 19 19
22 22 23 25 26 26 27 28 29 30 31 32 33 34 35 36 37 37 38 39 41 42 42 42 41 39 38 37 34 31 29 26 23 21 19 17 16 15 14 14 14 14 15
22 24 25 24 25 26 27 27 28 28 29 30 31 32 32 33 33 34 35 36 37 37 37 36 34 33 32 30 28 25 22 19 17 15 13 12 11 11 11 12 12 12 12
21 22 22 23 23 24 25 25 26 27 28 28 28 28 29 29 29 30 31 32 32 31 31 30 29 28 26 24 21 19 16 14 12 11 11 10 10 10 11 11 11 12 12
19 19 20 21 21 22 23 24 25 25 26 26 26 26 26 26 26 27 27 27 27 27 26 25 24 23 22 20 17 14 12 11 11 11 10 10 10 11 11 12 12 13 14
16 17 17 19 20 21 22 23 23 24 23 23 23 23 23 22 22 23 23 23 23 23 22 21 20 19 18 16 14 12 11 11 10 11 11 11 11 12 13 14 14 15 16
14 15 17 18 19 20 21 22 22 21 20 20 20 20 19 19 20 20 20 19 19 19 19 18 17 16 14 13 12 11 11 11 11 11 12 12 13 14 14 15 16 17 17
12 14 15 16 17 18 19 19 18 18 18 18 18 18 17 17 17 17 17 17 17 17 16 15 14 13 12 11 11 11 11 12 12 12 12 13 13 14 15 16 17 18 18

GEFSMW_500_meanwind_072.txt.gz
Wind_Speed
25 24 23 22 23 22 22 22 22 24 24 26 27 27 28 29 29 30 30 30 31 32 32 31 32 33 34 34 34 35 34 34 33 32 32 32 32 32 34 34 34 35 35
27 26 26 25 25 24 24 24 25 26 28 28 30 30 31 33 33 32 32 32 32 32 32 31 32 33 31 33 34 33 32 32 32 31 30 31 32 33 35 36 36 37 39
28 28 28 29 28 27 26 27 27 29 30 30 31 31 32 32 34 35 36 35 34 35 34 32 32 32 32 32 30 30 31 31 32 32 32 32 33 34 36 38 39 40 42
28 29 29 30 29 29 29 29 29 31 32 32 31 33 34 34 36 36 36 36 35 35 35 35 33 33 32 32 32 34 34 34 34 34 35 36 37 39 40 40 42 44 45
28 28 29 29 30 30 30 31 31 32 32 30 31 32 34 35 36 36 36 36 36 36 36 36 37 35 34 34 35 36 35 35 36 37 38 40 41 42 43 44 45 46 48
28 28 29 29 30 31 32 32 32 32 31 31 32 33 34 35 36 35 34 35 37 38 38 39 39 37 37 37 37 37 38 39 39 40 41 42 44 44 46 48 50 51 52
27 28 28 30 31 31 32 32 33 33 33 34 35 36 36 37 37 37 37 37 38 38 39 40 40 39 39 40 40 40 40 41 41 42 43 45 47 49 51 52 54 55 57
26 27 28 30 31 32 33 33 34 34 35 35 36 37 37 38 39 39 39 40 40 40 41 41 40 40 41 42 43 43 44 44 45 46 47 49 51 52 54 56 58 60 61
27 28 29 30 32 33 34 34 34 35 36 36 37 38 39 39 40 41 42 42 42 42 42 42 42 43 44 44 46 46 47 48 48 49 51 52 54 56 58 60 62 63 65
28 29 31 32 33 34 35 35 36 36 37 38 38 39 40 41 42 42 42 43 44 43 44 45 46 46 47 47 47 48 49 51 51 53 54 56 57 59 61 63 64 65 66
30 31 31 32 33 34 35 36 37 37 38 39 39 39 40 41 42 43 44 45 45 46 47 46 46 47 47 48 49 50 52 53 53 55 56 58 59 61 62 62 63 63 63
31 31 32 34 35 36 36 37 37 38 38 39 39 39 40 41 42 43 43 44 45 45 45 46 46 46 48 49 50 52 52 54 55 56 57 58 59 59 59 59 59 58 58
31 32 33 34 35 35 36 36 36 37 37 38 38 39 40 41 42 43 44 44 44 44 44 44 45 47 48 49 51 52 53 54 55 56 56 56 56 56 56 55 54 53 52
31 31 32 33 34 34 35 35 35 36 37 37 37 39 40 40 41 42 42 42 42 43 43 44 45 46 47 49 50 52 53 53 54 54 54 54 53 52 51 49 48 47 46
30 31 31 31 32 33 34 35 35 35 35 36 37 38 39 39 39 39 39 40 41 42 42 43 44 45 46 48 49 49 50 51 51 51 50 48 46 45 43 42 41 40 39
28 29 30 31 30 31 32 32 33 33 34 35 36 36 36 36 36 37 38 39 40 40 41 42 43 44 45 46 46 47 47 47 46 44 42 40 39 38 36 34 33 32 32
27 27 28 28 28 29 29 30 30 30 30 31 32 33 33 33 34 34 35 37 37 38 39 40 41 42 42 43 43 42 41 40 39 37 36 34 33 31 29 27 26 25 24
24 24 25 25 25 26 27 27 27 28 28 29 30 30 30 31 32 33 34 35 35 36 37 37 38 39 39 39 38 37 36 35 33 32 31 29 27 25 23 22 21 20 19
22 22 22 23 24 24 24 25 26 26 27 28 28 29 30 31 32 32 32 32 32 33 34 35 35 35 35 34 34 33 32 30 28 27 25 22 21 19 17 16 15 15 15
21 21 22 22 23 23 23 24 24 25 26 27 27 28 29 29 29 29 29 29 29 30 31 31 31 31 31 30 29 28 26 24 22 20 18 17 16 15 14 13 13 14 15
20 20 21 21 21 22 22 23 24 24 25 26 26 27 27 27 26 26 26 26 27 27 27 27 27 27 26 24 23 22 20 19 17 16 14 14 13 13 12 13 14 14 15
19 19 20 20 20 21 21 21 22 23 23 24 24 24 24 24 24 24 24 23 23 23 23 23 22 21 20 19 18 17 16 14 13 12 12 12 12 13 13 14 15 15 16
18 18 19 19 19 20 20 20 20 20 21 22 22 22 22 21 21 21 21 20 20 20 20 19 18 17 17 16 15 14 13 11 11 11 11 11 12 13 14 15 15 16 17
15 15 15 16 17 18 18 18 19 19 20 20 20 20 20 19 19 19 18 18 17 16 16 15 15 14 13 13 12 11 10 10 10 10 11 11 12 13 14 15 16 16 17
11 12 13 14 15 16 17 17 18 18 18 18 17 17 17 17 17 16 15 15 14 14 13 13 12 11 10 10 9 9 8 9 9 10 11 11 12 13 14 15 16 16 17
9 10 12 13 14 15 15 15 15 15 15 15 15 15 15 15 14 14 13 12 12 11 11 10 9 9 8 8 7 7 8 8 9 10 10 11 12 13 14 15 16 16 16

GEFSMW_500_meanwind_078.txt.gz
Wind_Speed
29 28 25 23 22 21 20 19 19 20 19 20 20 21 22 24 25 26 27 27 28 29 28 29 30 31 31 29 28 29 30 30 29 28 28 30 31 31 31 32 32 32 32
29 28 27 24 23 22 21 20 20 21 21 22 22 23 24 26 27 28 29 29 30 31 32 32 33 33 33 32 30 30 29 29 30 30 30 31 31 32 32 33 34 35 36
28 27 25 23 23 22 22 21 22 23 24 25 25 25 26 27 29 30 30 31 31 31 32 33 33 32 31 30 30 31 31 31 32 32 32 33 33 34 34 35 36 38 39
27 27 25 25 25 25 25 25 26 26 26 27 26 27 28 29 31 32 33 33 33 34 33 33 32 31 31 31 31 32 32 33 34 34 34 35 36 36 36 37 38 40 41
28 27 26 26 27 28 27 27 28 28 28 28 29 29 30 31 31 32 33 32 33 32 31 31 32 32 31 32 33 34 35 35 36 37 36 37 39 39 39 40 41 43 45
29 29 27 27 28 28 28 28 28 29 30 30 31 32 32 32 33 34 34 33 33 33 32 32 31 32 32 34 35 36 37 38 39 39 40 41 41 41 43 44 45 47 49
28 28 28 28 27 27 27 28 29 31 31 32 33 35 35 36 36 35 36 35 34 33 33 34 35 35 35 37 38 39 39 40 40 41 42 43 43 45 46 48 50 51 54
27 27 27 27 27 27 28 29 30 31 32 34 35 36 37 36 36 36 36 36 36 36 36 36 36 37 38 39 40 42 42 42 43 44 45 46 47 48 50 52 54 56 57
28 27 27 27 28 28 28 29 31 33 33 34 35 36 35 36 37 37 37 38 38 38 38 38 38 39 41 42 43 45 45 44 45 46 47 47 49 50 52 54 55 56 56
26 26 27 27 28 29 30 31 32 34 35 35 35 35 36 37 38 39 39 39 39 39 39 40 41 42 43 44 45 46 46 46 46 47 47 49 50 52 53 53 54 55 55
26 27 28 29 30 31 32 33 34 35 35 36 36 37 39 40 39 39 40 40 39 40 41 43 44 45 45 45 46 45 45 46 47 47 48 49 50 51 51 51 52 53 54
26 27 28 28 29 30 32 33 35 35 36 37 38 39 40 40 39 39 40 40 41 42 43 44 44 45 45 45 45 45 46 47 46 47 48 48 49 50 50 50 51 50 50
24 26 27 28 29 30 32 33 34 36 37 38 38 39 39 39 39 40 41 41 42 44 45 45 45 45 45 45 44 45 45 46 46 46 47 48 48 48 48 48 47 45 44
25 26 27 29 30 31 32 33 35 36 37 38 38 38 39 40 40 40 42 43 43 44 45 44 43 43 43 43 43 43 44 44 45 45 45 45 45 45 44 43 42 41 40
25 27 28 29 30 32 33 34 35 35 36 37 37 38 38 39 40 41 41 42 42 41 41 41 40 40 40 41 42 42 43 43 43 43 42 42 41 41 40 39 38 38 37
26 27 28 29 30 32 33 34 35 35 36 36 36 37 37 38 38 38 38 37 37 37 37 37 38 38 38 39 40 40 40 40 39 39 38 38 37 36 35 34 34 33 32
26 27 28 30 31 31 31 31 32 34 34 34 34 34 34 34 34 34 34 33 34 34 35 35 36 36 37 37 37 36 36 35 35 35 34 33 32 30 29 29 27 26 25
26 27 27 28 27 27 27 28 29 30 30 31 31 31 31 31 31 30 30 31 31 32 32 33 33 33 33 33 33 32 32 31 30 29 28 27 26 25 25 23 22 21 22
25 25 24 23 23 24 25 26 26 26 26 27 27 27 27 28 28 28 28 29 29 29 29 30 31 31 30 30 29 28 27 26 25 24 23 22 21 21 20 19 19 20 20
24 24 22 22 22 22 22 21 21 22 23 24 25 25 26 26 26 27 27 27 28 28 28 28 28 27 26 26 25 23 22 21 20 19 19 18 18 18 18 18 18 18 18
22 21 21 20 20 20 19 20 20 21 22 23 23 24 24 25 25 25 26 26 26 26 25 25 24 23 23 22 20 19 18 17 16 16 16 16 16 16 16 17 17 17 17
18 18 18 18 18 18 19 19 20 20 21 21 21 22 22 23 23 23 23 22 22 23 22 22 21 20 19 18 16 15 15 14 14 14 14 14 14 15 16 16 17 17 17
16 16 16 16 16 17 17 18 18 19 19 19 20 20 20 20 20 20 20 20 20 20 19 19 18 17 15 14 13 13 12 12 12 12 12 13 14 15 15 16 16 17 17
14 14 15 15 16 16 16 17 18 18 17 18 18 17 17 17 17 18 18 18 18 17 16 15 14 13 12 11 10 10 10 10 11 11 12 13 14 14 15 16 16 17 17
13 13 14 14 15 15 16 16 16 15 15 15 15 16 15 15 16 16 16 15 15 14 13 12 11 10 10 9 9 9 9 10 10 11 12 14 15 15 16 15 15 16 16
11 11 12 12 13 13 14 14 14 14 14 15 14 14 14 14 14 13 13 12 12 11 11 10 9 9 8 8 8 8 8 9 10 11 12 13 14 15 15 15 15 16 16

GEFSMW_500_meanwind_084.txt.gz
Wind_Speed
35 33 32 30 27 25 22 22 20 18 16 15 15 15 15 15 16 16 16 17 17 18 19 20 22 23 24 24 24 25 25 25 26 27 28 28 29 28 28 29 30 30 31
34 33 33 32 27 26 23 22 21 19 19 18 17 17 16 16 16 17 17 17 18 19 20 20 21 23 23 22 24 24 25 25 26 27 27 28 29 29 30 31 32 34 35
32 31 32 31 28 24 24 23 22 23 21 19 18 17 17 18 19 19 20 20 20 20 20 21 21 21 23 24 24 24 25 25 25 26 27 28 28 30 32 33 34 35 36
29 29 29 27 26 25 25 25 22 22 21 20 20 20 20 19 20 21 21 21 21 21 21 20 21 21 21 22 22 23 25 25 26 27 28 30 31 32 33 35 37 37 38
29 28 28 27 26 25 23 23 23 22 21 21 22 21 20 20 21 21 21 20 20 20 20 20 20 21 22 23 24 24 25 27 28 30 31 32 33 34 35 37 38 40 42
28 28 28 27 26 25 24 25 24 24 24 23 23 23 23 24 23 23 23 22 23 22 21 21 22 23 24 26 26 27 28 29 30 32 33 35 36 37 38 39 40 42 44
26 26 27 26 26 27 27 27 26 25 23 23 24 24 25 25 25 24 24 24 24 24 24 25 25 26 27 28 29 29 30 32 33 35 36 37 37 39 40 41 42 44 46
24 24 26 27 27 27 28 29 27 26 25 25 25 25 26 27 27 26 25 26 26 26 27 28 29 29 31 31 32 32 33 35 36 37 38 39 40 41 43 44 45 46 48
25 26 26 27 28 28 28 29 28 27 27 27 27 27 28 29 29 29 29 29 29 30 31 32 33 34 35 35 35 35 36 37 38 39 41 42 43 44 45 46 46 47 49
24 25 25 26 27 26 26 26 28 29 29 29 30 30 31 31 31 31 31 33 33 33 34 35 36 37 37 37 38 38 39 40 40 41 42 44 45 45 45 46 46 47 49
24 23 24 25 26 26 26 26 28 29 30 30 31 31 32 33 33 34 34 34 35 36 37 37 38 38 39 39 40 40 40 41 41 42 43 43 44 44 45 45 47 47 48
24 24 24 25 26 27 27 28 28 30 31 32 32 33 34 34 35 35 35 36 37 37 38 38 38 39 39 40 40 40 40 41 41 41 41 42 43 43 44 45 46 46 46
22 23 23 24 26 27 28 29 30 31 31 32 33 34 34 35 36 36 37 38 38 38 39 39 40 40 40 40 40 40 40 40 41 41 41 41 42 42 42 43 43 42 42
21 21 22 24 25 26 28 29 30 31 32 33 34 34 35 36 36 37 38 38 39 39 39 39 39 39 40 39 39 38 38 39 38 39 39 39 40 39 38 38 37 37 37
19 21 22 23 25 27 28 29 31 32 32 33 34 34 35 36 36 36 37 37 38 38 39 39 38 38 38 37 37 37 37 37 37 37 37 36 36 35 34 34 34 33 33
18 20 22 23 25 26 27 29 29 30 30 31 32 32 33 34 34 34 35 35 36 36 36 36 36 36 35 35 35 35 35 35 35 34 33 32 31 30 30 30 30 30 30
19 20 21 23 24 24 26 26 27 28 28 29 29 29 30 31 31 31 32 32 32 32 32 32 32 32 32 33 34 33 33 32 31 30 29 28 27 27 27 26 26 26 26
19 20 21 22 23 24 25 25 26 26 26 26 26 27 27 28 28 27 28 28 29 30 30 30 30 30 31 31 31 30 29 28 28 27 25 24 23 23 23 23 23 24 24
17 19 20 21 21 22 22 23 23 24 24 25 25 25 25 26 26 26 27 27 28 29 29 29 29 29 29 28 28 27 26 25 24 22 20 20 20 21 21 22 22 22 22
16 18 19 19 20 20 20 21 21 21 21 22 23 23 24 24 25 26 26 26 26 27 27 26 26 25 25 24 23 23 22 21 20 19 18 18 19 19 20 20 21 21 21
14 14 15 15 16 17 17 18 19 19 20 20 21 22 22 23 23 23 23 24 24 24 24 24 23 22 21 21 20 20 19 18 17 16 16 16 16 17 18 19 20 20 20
11 12 12 13 14 14 15 16 17 18 19 19 20 20 20 21 21 21 21 21 21 21 21 20 20 20 20 19 18 17 16 15 14 14 14 15 15 16 17 18 19 19 19
10 10 11 11 12 13 13 14 15 17 17 18 18 18 18 18 18 18 18 18 18 18 18 18 18 18 17 16 15 15 14 13 13 13 13 14 15 16 17 17 18 18 19
9 9 9 10 10 11 12 13 14 15 15 16 16 16 17 16 17 17 17 16 16 15 15 16 15 15 14 14 13 12 12 12 12 12 13 14 15 15 16 16 17 18 18
8 8 8 8 9 10 11 12 13 14 14 14 14 14 15 15 15 14 14 14 14 14 14 13 12 12 11 11 11 10 10 10 11 11 12 14 14 15 15 16 17 17 18
9 9 8 9 9 10 11 11 11 11 11 11 11 12 12 13 12 12 12 12 12 12 12 11 11 10 10 10 9 9 9 9 10 11 12 13 13 14 15 15 16 17 17

GEFSMW_500_meanwind_090.txt.gz
Wind_Speed
33 31 30 29 28 27 27 26 26 25 26 25 24 24 24 24 25 25 25 25 25 25 24 24 24 24 24 24 25 26 27 27 27 27 27 28 29 29 29 29 30 31 31
31 31 31 30 29 28 27 27 27 27 28 27 26 26 25 26 26 25 25 25 25 24 24 24 24 24 24 25 25 26 27 28 27 28 29 29 29 30 31 31 32 32 33
30 31 32 31 30 29 29 29 28 27 27 26 26 26 25 25 26 26 26 24 24 24 24 23 23 24 24 25 25 26 27 27 28 29 31 31 30 31 32 33 34 35 35
28 30 31 31 30 29 28 27 26 26 27 26 25 25 25 24 24 24 25 25 25 24 24 24 24 24 25 25 25 26 26 27 28 30 31 31 32 33 34 35 36 37 37
26 28 29 29 29 27 26 26 25 26 26 26 24 23 24 23 23 23 22 22 22 22 22 22 23 24 25 25 26 27 26 27 28 29 30 31 33 34 36 37 37 38 39
23 25 26 27 27 26 26 25 25 24 24 24 23 21 22 21 20 21 21 21 21 20 21 22 23 24 25 25 25 27 27 28 29 30 31 33 34 36 37 38 39 40 41
22 23 24 24 25 26 26 26 25 24 23 23 22 21 21 20 19 19 20 20 20 20 21 21 23 24 26 27 28 29 30 31 32 33 34 35 37 38 39 40 42 43 44
22 23 24 24 25 25 26 26 25 24 22 23 24 22 22 22 20 20 22 22 23 24 24 24 25 27 29 30 30 31 33 34 35 36 37 38 39 40 41 42 44 45 46
22 23 23 24 24 24 25 25 25 24 24 23 23 24 23 23 22 22 24 25 26 26 27 27 29 30 31 32 33 34 35 36 37 38 39 40 41 42 43 43 44 45 46
21 22 23 23 24 23 24 25 24 25 24 23 23 24 25 25 25 25 26 26 27 27 27 29 30 32 33 34 35 36 37 38 39 40 41 41 41 42 43 43 44 45 46
19 21 22 24 24 24 24 25 25 25 24 23 23 24 25 25 25 25 27 27 28 28 29 30 31 32 34 35 36 37 38 39 40 41 41 41 41 42 43 43 44 45 46
17 19 20 22 23 23 24 24 24 24 24 24 24 24 24 25 26 27 27 28 29 30 31 32 33 34 35 36 37 38 39 40 40 40 40 40 41 42 43 43 43 43 44
16 16 17 19 20 22 22 23 24 24 24 24 24 24 24 25 27 28 29 30 31 32 33 33 34 35 35 37 38 39 40 40 39 40 40 40 40 41 41 41 40 40 39
14 15 15 17 18 20 22 23 23 24 24 25 26 26 26 27 28 29 29 30 31 32 33 33 34 35 36 37 38 38 38 38 38 38 38 38 38 38 37 37 36 36 35
15 15 15 16 17 19 21 22 23 24 25 26 26 26 27 28 28 29 30 30 31 32 32 32 33 34 35 35 35 35 35 35 35 35 35 35 35 34 34 33 32 32 32
14 16 17 17 18 19 20 21 22 23 24 25 26 26 27 27 28 28 29 30 30 31 31 31 31 31 31 31 32 32 31 31 32 31 31 31 31 31 30 29 29 28 28
14 15 16 17 18 19 20 21 22 22 23 24 25 25 25 26 26 27 28 28 28 29 29 29 29 29 29 28 28 28 28 28 28 28 29 29 28 27 26 26 26 25 25
14 14 15 17 18 18 19 20 21 21 22 23 23 24 24 25 25 26 26 26 26 26 26 26 27 27 27 26 26 27 26 26 26 26 26 26 25 24 23 23 23 22 22
14 15 16 17 17 18 18 19 20 20 21 21 22 23 23 23 23 24 24 24 24 24 25 25 25 25 25 25 25 25 24 24 23 23 23 22 22 21 20 20 20 20 21
15 15 16 17 18 18 19 19 19 19 20 20 21 22 22 22 22 22 22 22 22 23 23 23 23 23 23 23 22 22 21 21 21 21 20 19 19 18 18 18 18 19 20
13 14 15 15 15 16 16 16 17 17 17 18 19 20 20 20 20 20 20 21 21 21 21 21 20 20 20 20 20 19 19 19 18 18 17 17 16 16 16 17 17 18 19
10 11 12 12 13 13 14 14 15 15 16 17 17 18 18 18 18 18 19 19 19 19 18 18 17 17 17 17 17 17 16 16 16 16 15 15 15 15 16 16 17 17 18
9 9 10 10 11 12 13 13 14 15 16 16 16 17 18 18 18 18 18 17 17 16 16 15 15 15 15 15 15 14 14 14 13 13 13 13 14 14 15 16 16 16 17
7 7 8 9 10 11 11 12 12 13 14 15 16 17 17 17 17 17 16 15 14 14 14 13 13 13 13 13 13 12 12 12 11 11 12 12 13 13 14 14 15 16 16
7 7 8 8 9 10 11 11 12 12 13 13 14 14 14 14 14 13 13 12 11 11 11 11 11 12 12 12 11 10 10 10 10 10 11 12 12 13 13 14 15 15 15
7 7 7 8 9 9 9 9 9 10 10 11 11 11 11 11 11 10 9 9 9 9 9 10 10 10 10 10 9 9 9 9 9 10 10 11 12 12 13 14 14 14 15